VELOX-C1

operational
NORAD ID: 41166 Int'l Des: 2015-077 Owner: NTU Country: SG
LEOCIRCULAR

关于 VELOX-C1

正在加载描述...

实时位置

正在加载3D地球...

即将过境

高度历史

Altitude vs Time

uPlot chart will show altitude changes over time

两行轨道根数

1 41166U 15077A 26061.00368668 .00025873 00000-0 50065-3 0 9994
2 41166 14.9811 191.9939 0005455 97.5460 262.5485 15.45331862566091
Epoch: Mar 2, 2026 • Age: 27 hours

当前状态

高度 423.1 km
速度 7.66 km/s
星下点 14.82°N, 80.24°E
发射日期 Dec 16, 2015
运行时间 10.2 years
类型 other

技术详情

分类 Payload
质量 123.00 kg
干质量 123.00 kg
总质量 123.00 kg
长度 0.50 m
直径 0.40 m
跨度 1.00 m
形状 Box + 2 pan
制造商 NTU
平台类型 VELOX-C
阶段状态 In Orbit
所有者/国家 NTU/SG

大型星座

Loading constellations...